Regional Weather Roundup
Issued by NWS Binghamton, NY

Home | Current Version | Previous Version | Text Only | Print | Product List | Glossary On
Versions: 1 2 3 4 5 6 7 8 9 10 11 12 13 14 15 16 17 18 19 20 21 22 23 24 25 26 27 28 29 30 31 32 33 34 35 36 37 38 39 40 41 42 43 44 45 46 47 48 49 50
000
ASUS41 KBGM 042010
RWRBGM
RWRBGM
BINGHAMTON REGIONAL WEATHER ROUNDUP
NATIONAL WEATHER SERVICE BINGHAMTON NY
400 PM EDT MON MAY 04 2015

Note: "fair" indicates few or no clouds below 12,000 feet with no
significant weather and/or obstructions to visibility.

* = Station(s) that does not report precipitation, such as rain,
snow, etc, also no thunder or fog.

!NYZ009-015>018-022>025-036-037-044>046-055>057-062-042100
...CENTRAL NEW YORK...

CITY           SKY/WX    TMP DP  RH WIND       PRES   REMARKS
BINGHAMTON     MOSUNNY   79  39  23 SW9G18    30.10F
CORTLAND       FAIR      79  41  25 SW14      30.08F
DANSVILLE      PTSUNNY   84  41  21 SW12G21   30.03F
ELMIRA         MOSUNNY   84  41  21 W16G24    30.04F
ITHACA         MOSUNNY   82  38  20 SW17G24   30.07F
MONTICELLO     MOSUNNY   81  37  21 SW14G26   30.14S
PENN YAN       PTSUNNY   81  41  24 SW13      30.05F
ROME           LGT RAIN  81  40  23 W10       30.04F
SYRACUSE       CLOUDY    81  41  24 SW17G23   30.02F
$$

!PAZ038>040-043-044-047-048-072-042100
...NORTHEAST PENNSYLVANIA...

CITY           SKY/WX    TMP DP  RH WIND       PRES   REMARKS
HAZLETON       PTSUNNY   81  37  21 S9G18     30.18F
SCRANTON       SUNNY     84  38  19 W15G28    30.10F
TOWANDA*       SUNNY     82  37  20 SW10G20   30.06F
$$
&&
KEY
WCI = WIND CHILL INDEX
VSB = VISIBILITY
HX  = HEAT INDEX
$$



USA.gov is the U.S. government's official web portal to all federal, state and local government web resources and services.